Regional Weather Roundup
Issued by NWS Kansas City/Pleasant Hill, MO

Home | Current Version | Previous Version | Text Only | Print | Product List | Glossary On
Versions: 1 2 3 4 5 6 7 8 9 10 11 12 13 14 15 16 17 18 19 20 21 22 23 24 25 26 27 28 29 30 31 32 33 34 35 36 37 38 39 40 41 42 43 44 45 46 47 48 49 50
000
ASUS43 KEAX 240210
RWREAX

WEATHER ROUNDUP FOR EASTERN KANSAS AND NORTHWEST MISSOURI
NATIONAL WEATHER SERVICE KANSAS CITY/PLEASANT HILL MO
900 PM CDT WED AUG 23 2017

KSZ040-057-103>105-MOZ028-029-037-043-240300-
...KANSAS CITY METROPOLITAN AREA...

CITY           SKY/WX    TMP DP  RH WIND       PRES   REMARKS
K.C. INTL      FAIR      72  56  57 E6        30.06S
K.C. DOWNTOWN  FAIR      75  58  55 SE3       30.05R
LEES SUMMIT    FAIR      70  61  73 SE3       30.07S
OLATHE - IXD   FAIR      69  57  65 SE5       30.07R
OLATHE - OJC   FAIR      68  58  70 CALM      30.07R
LAWRENCE       FAIR      66  64  93 NE3       30.05R

$$

MOZ001>008-011>017-020>025-030>033-038>040-044>046-053-054-240300-
...NORTHERN AND CENTRAL MISSOURI...

CITY           SKY/WX    TMP DP  RH WIND       PRES   REMARKS
ST. JOSEPH     FAIR      64  62  93 CALM      30.05S
MOSBY          FAIR      66  61  82 CALM      30.06R
WARRENSBURG    FAIR      64  55  72 CALM      30.06S
WHITEMAN AFB   CLEAR     66  61  83 CALM      30.05S
CLINTON        FAIR      64  59  82 CALM      30.07R
SEDALIA        FAIR      67  63  87 CALM      30.07S
WARSAW         NOT AVBL
CHILLICOTHE      N/A     65  62  90 CALM      30.07S
KIRKSVILLE     FAIR      63  56  78 CALM      30.08R

$$

MOZ041-047>049-056>058-063>065-088>090-097-240300-
...EASTERN AND SOUTHERN MISSOURI...

CITY           SKY/WX    TMP DP  RH WIND       PRES   REMARKS
ST. LOUIS INTL FAIR      69  55  60 N6        30.05S
SPIRIT OF STL  FAIR      64  61  90 CALM      30.04R
COLUMBIA       FAIR      67  57  70 E5        30.07R
JEFFERSON CITY FAIR      65  60  84 CALM      30.05R
ROLLA          FAIR      63  58  83 CALM      30.08R
OSAGE BEACH    FAIR      63  60  90 CALM      30.07R
SPRINGFIELD    FAIR      69  57  65 NE7       30.05R
BRANSON        PTCLDY    68  55  64 CALM      30.06R
JOPLIN         FAIR      70  60  70 NE3       30.05R
WEST PLAINS    FAIR      67  54  63 NE5       30.07R

$$

IAZ060-094-KSZ022-034>040-054-083-096-NEZ052-066-093-240300-
...KANSAS...SOUTHEAST NEBRASKA AND IOWA...

CITY           SKY/WX    TMP DP  RH WIND       PRES   REMARKS
TOPEKA         FAIR      70  61  73 CALM      30.05R
MANHATTAN      FAIR      69  58  67 E3        30.04S
EMPORIA        FAIR      67  57  70 SE6       30.05R
CHANUTE        FAIR      69  58  67 NE6       30.05R
WICHITA        FAIR      73  53  49 E8        30.03R
OMAHA          FAIR      72  57  59 SE12      30.03S
LINCOLN        FAIR      72  58  61 SE8       30.03R
FALLS CITY     FAIR      68  59  73 SE5       30.03F
LAMONI         FAIR      70  54  56 CALM      30.06R
DES MOINES     FAIR      72  54  53 S5        30.04R

$$




USA.gov is the U.S. government's official web portal to all federal, state and local government web resources and services.